Погода в Хоперском

Россия / Саратовская область     51°34′26″N   43°14′02″E
темп.,
°C
ветер,
м/с
пор.,
м/с
влажн.,
%
обл.,
%
осадки,
мм/ч
давл.,
гПа
погр.,
м
26 июля, пн
пн2601:00+16в336087 0.0 102332
04:00+17вюв115416 0.0 102314
07:00+17св126014 0.0 102455
10:00+23всв33410 0.0 1024837
13:00+25всв22327 0.0 10242370
16:00+26в332944 0.0 10222649
19:00+23вюв2241100 0.0 102231
22:00+19всв345219 0.0 102348
27 июля, вт
вт2701:00+17вюв22530 0.0 102314
04:00+15ююв22530 0.0 102310
07:00+17юз225314 0.0 102353
10:00+23зсз233940 0.0 1023545
13:00+26ссз443596 0.0 10221971
16:00+27ссв353591 0.0 10202149
19:00+26ссз244197 0.0 1019736
22:00+21ю00493 0.0 102011
28 июля, ср
ср2801:00+18юв00581 0.0 102011
04:00+17зсз11640 0.0 101911
07:00+19зсз12635 0.0 101961
10:00+25юз22433 0.0 1018614
13:00+28з3434100 0.0 10172930
16:00+24ююв444788 0.0 1016145
19:00+24вюв114997 0.0 101624
22:00+21юв455963 0.1 101565
29 июля, чт
чт2901:00+22ю494953 0.0 1014163
04:00+19ю41051100 0.0 1012158
07:00+22юз51144100 0.0 1011325
10:00+22зюз597250 1.5 1011616
13:00+28з794772 0.9 10102106
16:00+29зсз6838100 0.9 10092126
19:00+27зсз574499 0.1 1009950
22:00+21зюз4106584 0.1 1010185
30 июля, пт
пт3001:00+21з366966 0.0 1010104
04:00+20зсз357273 0.0 101171
07:00+20зсз36715 0.0 1012162
10:00+27зсз45460 0.0 10121077
13:00+31зсз45350 0.0 10112254
16:00+32сз452910 0.0 10112687
19:00+30с44355 0.0 1011683
22:00+24всв22505 0.0 101215